Waarnemingen

Advertentie
Mijn weer
Hoburg A, Zweden (2679): temperatuur & dauwpunt: 12.02.2019 02:00:00 - 18.02.2019 02:00:00 (CET)Hoburg A, Zweden (2679): windsnelheid & windstoten: 12.02.2019 02:00:00 - 18.02.2019 02:00:00 (CET)Hoburg A, Zweden (2679): windrichting: 12.02.2019 02:00:00 - 18.02.2019 02:00:00 (CET)Hoburg A, Zweden (2679): luchtdruk: 12.02.2019 02:00:00 - 18.02.2019 02:00:00 (CET)Hoburg A, Zweden (2679): zicht: 12.02.2019 02:00:00 - 18.02.2019 02:00:00 (CET)Hoburg A, Zweden (2679): neerslag: 12.02.2019 02:00:00 - 18.02.2019 02:00:00 (CET)
Datum & Tijd tt [°C] td [°C] ff [km/u] ff [kn] fx [km/u] fx [kn] dd ppp [hPa] vv [km] rr [mm]
18.02.2019 02:00:00 - - - - - - - - - -
18.02.2019 01:00:00 2,5 2,2 8 4 10 6 ZZO 1022,2 0,5 0,0
18.02.2019 00:00:00 2,8 2,4 7 4 8 5 OZO 1022,3 0,8 0,0
17.02.2019 23:00:00 3,8 3,1 5 3 7 4 ZZW 1022,4 7 0,0
17.02.2019 22:00:00 4,4 3,7 5 3 9 5 WNW 1022,3 12 0,0
17.02.2019 21:00:00 4,1 3,5 6 3 9 5 W 1022,1 10 0,0
17.02.2019 20:00:00 3,7 3,1 7 4 9 5 WZW 1021,8 7 0,0
17.02.2019 19:00:00 3,8 3,1 6 4 8 4 WZW 1021,7 7 0,0
17.02.2019 18:00:00 4,0 2,9 4 2 11 6 ZZW 1021,7 11 0,0
17.02.2019 17:00:00 4,6 3,6 6 3 10 6 NW 1021,3 33 0,0
17.02.2019 16:00:00 4,6 3,7 6 3 9 5 W 1021,0 32 0,0
17.02.2019 15:00:00 4,6 4,0 6 3 9 5 W 1021,0 13 0,0
17.02.2019 14:00:00 5,0 4,6 5 3 9 5 WZW 1020,7 6 0,0
17.02.2019 13:00:00 5,0 4,7 6 4 10 5 ZW 1020,6 3,3 0,0
17.02.2019 12:00:00 4,7 4,4 5 3 14 7 N 1020,6 0,8 0,0
17.02.2019 11:00:00 4,7 4,4 5 3 14 8 NW 1020,3 0,4 0,0
17.02.2019 10:00:00 4,5 4,1 9 5 15 8 WNW 1019,9 0,5 0,0
17.02.2019 09:00:00 4,3 3,9 9 5 16 9 NW 1019,4 1,6 0,0
17.02.2019 08:00:00 4,5 3,9 11 6 16 9 WNW 1018,9 5 0,0
17.02.2019 07:00:00 4,6 3,9 11 6 19 11 NW 1018,3 4,7 0,0
17.02.2019 06:00:00 4,7 3,7 13 7 27 15 WNW 1017,9 8 0,0
17.02.2019 05:00:00 4,9 3,6 15 8 28 15 NW 1017,7 12 0,0
17.02.2019 04:00:00 4,6 3,3 18 10 28 15 W 1017,1 12 0,0
17.02.2019 03:00:00 5,1 3,4 20 11 30 16 W 1016,7 13 0,0
17.02.2019 02:00:00 4,7 3,2 18 10 30 16 W 1016,4 11 0,0
17.02.2019 01:00:00 4,6 3,3 23 12 30 16 W 1015,9 9 0,0
17.02.2019 00:00:00 4,8 3,1 21 11 37 20 W 1015,5 11 0,0
16.02.2019 23:00:00 4,4 2,4 24 13 41 22 W 1015,2 15 0,0
16.02.2019 22:00:00 4,8 2,5 27 15 43 23 W 1015,0 24 0,0
16.02.2019 21:00:00 4,9 2,3 31 17 47 25 WZW 1014,2 21 0,0
16.02.2019 20:00:00 4,3 2,3 33 18 47 25 WZW 1013,8 14 0,0
16.02.2019 19:00:00 4,3 2,3 32 18 45 24 WZW 1014,0 15 0,0
16.02.2019 18:00:00 4,1 2,3 31 17 45 24 WZW 1014,1 15 0,0
16.02.2019 17:00:00 4,4 2,1 31 17 43 23 WZW 1014,0 17 0,0
16.02.2019 16:00:00 4,6 2,3 30 16 43 23 ZW 1014,2 17 0,0
16.02.2019 15:00:00 5,1 2,5 29 16 42 23 ZW 1014,8 16 0,0
16.02.2019 14:00:00 5,5 2,5 31 17 42 23 ZW 1015,9 18 0,0
16.02.2019 13:00:00 5,5 2,7 29 16 42 23 ZW 1016,5 18 0,0
16.02.2019 12:00:00 5,7 2,7 31 17 41 22 ZW 1017,5 19 0,0
16.02.2019 11:00:00 5,7 2,7 26 14 37 20 ZW 1018,2 19 0,0
16.02.2019 10:00:00 5,2 2,5 25 14 36 19 ZW 1018,8 13 0,0
16.02.2019 09:00:00 4,5 2,0 24 13 32 18 ZW 1019,5 10 0,0
16.02.2019 08:00:00 3,7 1,6 20 11 28 15 ZW 1020,0 7 0,0
16.02.2019 07:00:00 3,2 1,1 19 10 32 17 ZW 1020,3 9 0,0
16.02.2019 06:00:00 3,3 1,2 19 10 32 17 WZW 1020,7 8 0,0
16.02.2019 05:00:00 3,3 1,2 21 11 33 18 ZW 1021,5 9 0,0
16.02.2019 04:00:00 3,5 1,2 25 13 33 18 WZW 1021,9 12 0,0
16.02.2019 03:00:00 3,0 1,4 22 12 32 17 WZW 1022,7 13 0,0
16.02.2019 02:00:00 3,1 1,1 21 12 32 17 WZW 1023,4 27 0,0
16.02.2019 01:00:00 3,6 1,2 23 12 29 16 WZW 1023,9 50 0,0
16.02.2019 00:00:00 3,6 1,2 18 10 28 15 WZW 1024,0 50 0,0
15.02.2019 23:00:00 3,8 1,0 20 11 31 17 WZW 1024,3 50 0,0
15.02.2019 22:00:00 4,1 1,1 21 12 31 17 WZW 1024,7 50 0,0
15.02.2019 21:00:00 4,3 1,5 22 12 29 16 W 1024,8 50 0,0
15.02.2019 20:00:00 3,6 2,3 22 12 28 15 WZW 1024,9 27 0,0
15.02.2019 19:00:00 3,5 2,5 16 8 20 11 WZW 1025,3 33 0,0
15.02.2019 18:00:00 3,4 2,2 9 5 24 13 ZW 1025,5 23 0,0
15.02.2019 17:00:00 3,6 2,6 10 5 29 16 ZW 1025,4 19 0,0
15.02.2019 16:00:00 5,7 4,2 18 10 29 16 W 1025,5 42 0,0
15.02.2019 15:00:00 5,6 4,1 20 11 29 16 W 1025,8 39 0,0
15.02.2019 14:00:00 5,1 3,8 20 11 30 16 W 1026,4 24 0,0
15.02.2019 13:00:00 5,7 4,2 18 10 32 17 W 1027,1 32 0,0
15.02.2019 12:00:00 6,3 4,3 25 14 32 17 W 1027,2 42 0,0
15.02.2019 11:00:00 5,8 4,3 21 12 29 15 W 1027,3 25 0,0
15.02.2019 10:00:00 5,9 4,7 20 11 29 16 W 1027,1 29 0,0
15.02.2019 09:00:00 4,9 4,2 24 13 29 16 W 1027,1 12 0,0
15.02.2019 08:00:00 3,3 2,9 20 11 29 16 W 1027,0 6 0,0
15.02.2019 07:00:00 3,3 2,7 19 10 29 16 W 1026,7 8 0,0
15.02.2019 06:00:00 3,4 2,7 22 12 29 16 W 1026,3 11 0,0
15.02.2019 05:00:00 3,2 2,6 22 12 28 15 W 1025,9 8 0,0
15.02.2019 04:00:00 3,2 2,5 18 10 26 14 W 1026,2 8 0,0
15.02.2019 03:00:00 3,0 2,3 19 10 26 14 W 1026,2 6 0,0
15.02.2019 02:00:00 3,0 2,1 18 10 27 14 W 1025,9 7 0,0
15.02.2019 01:00:00 3,5 2,3 19 11 39 21 W 1025,9 10 0,0
15.02.2019 00:00:00 3,9 2,6 22 12 39 21 W 1025,8 13 0,0
14.02.2019 23:00:00 4,4 2,9 29 16 39 21 W 1025,5 23 0,0
14.02.2019 22:00:00 3,7 2,7 24 13 31 17 W 1025,4 20 0,0
14.02.2019 21:00:00 4,3 3,0 22 12 35 19 WZW 1025,4 28 0,0
14.02.2019 20:00:00 5,0 3,3 26 14 35 19 W 1025,7 40 0,0
14.02.2019 19:00:00 5,0 3,3 24 13 34 18 W 1026,0 33 0,0
14.02.2019 18:00:00 5,1 3,6 24 13 37 20 W 1026,2 45 0,0
14.02.2019 17:00:00 5,1 3,4 24 13 38 21 W 1026,4 50 0,0
14.02.2019 16:00:00 5,1 3,4 24 13 40 21 W 1026,3 50 0,0
14.02.2019 15:00:00 6,3 4,0 30 16 40 21 W 1026,0 50 0,0
14.02.2019 14:00:00 5,4 3,7 29 15 36 20 W 1026,5 50 0,0
14.02.2019 13:00:00 5,5 4,0 25 13 36 20 W 1027,2 50 0,0
14.02.2019 12:00:00 5,1 3,9 23 13 32 17 W 1027,6 50 0,0
14.02.2019 11:00:00 4,4 3,7 21 11 32 17 W 1027,9 31 0,0
14.02.2019 10:00:00 4,5 3,9 19 10 31 17 W 1027,7 32 0,0
14.02.2019 09:00:00 3,3 3,0 22 12 31 17 W 1027,2 5 0,0
14.02.2019 08:00:00 2,5 2,1 23 13 31 17 WNW 1026,9 2,7 0,0
14.02.2019 07:00:00 2,4 1,4 22 12 28 15 WNW 1026,6 10 0,0
14.02.2019 06:00:00 2,6 1,1 21 11 30 16 W 1026,5 10 0,0
14.02.2019 05:00:00 2,9 1,0 22 12 30 16 W 1026,5 12 0,0
14.02.2019 04:00:00 2,7 0,9 19 10 23 12 WNW 1025,8 12 0,0
14.02.2019 03:00:00 2,9 1,0 17 9 25 14 WNW 1025,3 14 0,0
14.02.2019 02:00:00 2,8 0,7 11 6 31 17 WNW 1024,6 15 0,0
14.02.2019 01:00:00 3,7 0,9 22 12 34 18 WNW 1023,9 16 0,0
14.02.2019 00:00:00 3,9 1,1 26 14 39 21 WNW 1023,7 16 0,0
13.02.2019 23:00:00 3,8 1,3 25 14 39 21 WNW 1022,9 16 0,0
13.02.2019 22:00:00 4,1 1,7 29 16 36 19 WNW 1022,0 17 0,0
13.02.2019 21:00:00 4,3 1,5 24 13 29 16 WNW 1021,1 22 0,0
13.02.2019 20:00:00 3,9 1,1 20 11 26 14 W 1020,7 37 0,0
13.02.2019 19:00:00 4,5 1,2 17 9 29 16 WNW 1020,1 48 0,0
13.02.2019 18:00:00 4,3 1,5 19 10 31 17 WNW 1019,7 46 0,0
13.02.2019 17:00:00 4,9 1,6 20 11 39 21 NW 1018,7 50 0,0
13.02.2019 16:00:00 5,5 1,6 21 11 40 22 NW 1018,0 37 0,0
13.02.2019 15:00:00 6,0 1,9 27 15 42 23 NW 1017,0 41 0,0
13.02.2019 14:00:00 6,2 2,1 27 15 44 24 NW 1016,0 30 0,0
13.02.2019 13:00:00 6,4 2,4 31 17 46 25 NW 1015,2 30 0,0
13.02.2019 12:00:00 5,9 2,4 31 17 49 26 WNW 1014,2 25 0,0
13.02.2019 11:00:00 5,9 2,5 33 18 49 26 WNW 1013,2 26 0,0
13.02.2019 10:00:00 5,5 2,7 36 20 47 25 WNW 1012,2 26 0,0
13.02.2019 09:00:00 4,9 2,6 34 18 43 23 WNW 1011,5 30 0,0
13.02.2019 08:00:00 4,4 2,9 33 18 46 25 W 1010,9 50 0,0
13.02.2019 07:00:00 2,9 2,3 31 17 56 31 WZW 1011,0 13 0,0
13.02.2019 06:00:00 3,4 2,5 34 19 60 33 WZW 1012,0 29 0,0
13.02.2019 05:00:00 2,8 2,1 39 21 60 33 WZW 1012,2 15 0,0
13.02.2019 04:00:00 2,4 1,8 39 21 57 31 WZW 1013,9 25 0,0
13.02.2019 03:00:00 1,5 1,2 39 21 51 27 ZW 1016,3 50 0,7
13.02.2019 02:00:00 0,4 0,0 30 16 45 24 ZW 1017,1 3,6 0,4
13.02.2019 01:00:00 1,3 -0,6 31 17 45 24 W 1019,5 27 0,0
13.02.2019 00:00:00 2,2 -3,5 28 15 40 21 W 1020,4 50 0,0
12.02.2019 23:00:00 1,9 -3,6 26 14 41 22 W 1020,8 50 0,0
12.02.2019 22:00:00 2,2 -3,5 29 15 43 23 WNW 1021,2 50 0,0
12.02.2019 21:00:00 2,1 -4,2 32 18 43 23 WNW 1021,4 50 0,0
12.02.2019 20:00:00 1,9 -4,4 32 17 41 22 WNW 1021,5 50 0,0
12.02.2019 19:00:00 2,2 -4,8 31 17 41 22 WNW 1021,5 50 0,0
12.02.2019 18:00:00 2,1 -4,9 31 17 41 22 NW 1021,3 50 0,0
12.02.2019 17:00:00 1,9 -3,8 26 14 39 21 NW 1020,9 50 0,0
12.02.2019 16:00:00 1,8 -3,5 23 13 48 26 NW 1020,5 50 0,0
12.02.2019 15:00:00 2,3 -4,0 29 16 48 26 NW 1020,2 50 0,0
12.02.2019 14:00:00 2,1 -3,2 33 18 47 25 NW 1019,5 47 0,0
12.02.2019 13:00:00 1,9 -3,2 34 18 48 26 NW 1018,9 48 0,0
12.02.2019 12:00:00 1,9 -2,4 34 18 48 26 NW 1018,6 49 0,0
12.02.2019 11:00:00 1,7 -2,8 37 20 48 26 NNW 1017,9 50 0,0
12.02.2019 10:00:00 1,5 -2,6 31 17 53 29 NNW 1016,9 50 0,0
12.02.2019 09:00:00 1,3 -2,5 32 18 55 30 NNW 1016,1 50 0,0
12.02.2019 08:00:00 0,6 -3,0 40 22 56 30 NNW 1014,9 50 0,0
12.02.2019 07:00:00 0,7 -2,9 40 22 58 31 NNW 1013,6 50 0,0
12.02.2019 06:00:00 0,6 -2,8 41 22 58 31 NNW 1012,5 50 0,0
12.02.2019 05:00:00 0,7 -2,9 42 23 57 31 NNW 1011,5 50 0,0
12.02.2019 04:00:00 0,5 -3,1 40 21 56 30 NNW 1010,4 50 0,0
12.02.2019 03:00:00 0,7 -2,9 38 21 56 30 NNW 1009,3 50 0,0
12.02.2019 02:00:00 0,7 -3,0 40 21 58 31 NNW 1008,3 50 0,0

tt = temperatuur
td = dauwpunt
ff = windsnelheid
fx = windstoten
dd = windrichting
ppp = luchtdruk
vv = zicht
rr = neerslag

Weerstations in de omgeving